sat.trackr.live / text

‹ back to catalog

STARLINK-2096

NORAD 47376 · 2021-005AD

PAYLOAD ACTIVE UNKNOWN

§ Identity

Operator
Country
US
Launch date
2021-01-20
Launch site
AFETR
Launch vehicle
Mass (kg)
RCS (m²)

Purposes: comms

External: N2YO · Heavens-Above · Gunter

§ Orbital elements

Epoch: 2026-09-19T23:08:00.233376Z

Period
94.01 min
Inclination
53.1588°
Eccentricity
0.0001272
Mean motion
15.31703998 rev/d
Perigee alt
469.9 km
Apogee alt
471.6 km
Semi-major
6,848.9 km
B*
1.3631e-5
RAAN
238.4154°
Arg perigee
92.7876°
Mean anomaly
267.3271°
Rev number
31,279

§ Raw data

STARLINK-20961 47376U 21005AD  26262.96389159  .00000058  00000+0  13631-4 0  99932 47376  53.1588 238.4154 0001272  92.7876 267.3271 15.31703998312793

JSON: /api/v1/satellites/47376 · /tle

For live sub-satellite position, see the globe view (requires WebGL).

§ Visibility from observer

Set your observer location to see the next 7 days of passes ≥ 10°. The values pass through the URL so the page stays shareable.

No JS? Fill the form by hand. The geolocation button needs JavaScript.